Flight Track Log - Related Links

Times and Time Zones

All times are in EST time to prevent confusion due to time zone crossing. See the KAL250 flight status page for this flight to view local times or setup timezone preferences in your user account.

Time Position Orientation Groundspeed Altitude Reporting Facility
EST Latitude Longitude Course Direction KTS MPH feet Rate Location/Type
Thu 02:40:53 AM 40.7107 -73.5066 351° North 276 318 8,500  Level FlightAware ADS-B (KSNC)
Thu 02:41:15 AM 40.7376 -73.5165 335° Northwest 274 315 9,600 2,571 Climbing FlightAware ADS-B (KSNC)
Thu 02:41:35 AM 40.7588 -73.5361 317° Northwest 284 327 10,300 1,575 Climbing FlightAware ADS-B (KSNC)
Thu 02:42:35 AM 40.8204 -73.6133 316° Northwest 347 399 11,700 1,856 Climbing FlightAware ADS-B (KSNC)
Thu 02:43:12 AM 40.8656 -73.6702 316° Northwest 361 415 13,300 2,743 Climbing FlightAware ADS-B (KSNC)
Thu 02:43:45 AM 40.9066 -73.7216 316° Northwest 366 421 14,900 2,762 Climbing FlightAware ADS-B (KSNC)
Thu 02:44:15 AM 40.9419 -73.7661 316° Northwest 366 421 16,200 1,574 Climbing FlightAware ADS-B (KSNC)
Thu 02:44:46 AM 40.9817 -73.8161 316° Northwest 369 425 16,500 652 Climbing FlightAware ADS-B (KSNC)
Thu 02:45:47 AM 41.0549 -73.9086 316° Northwest 370 426 17,200 1,113 Climbing FlightAware ADS-B (KSNC)
Thu 02:46:23 AM 41.1008 -73.9666 316° Northwest 377 434 18,300 2,000 Climbing FlightAware ADS-B (KSNC)
Thu 02:46:56 AM 41.1422 -74.0192 316° Northwest 384 442 19,500 2,190 Climbing FlightAware ADS-B (KSNC)
Thu 02:47:26 AM 41.1812 -74.0689 316° Northwest 388 447 20,600 2,087 Climbing FlightAware ADS-B (KSNC)
Thu 02:48:05 AM 41.2306 -74.1317 316° Northwest 398 458 21,900 1,913 Climbing FlightAware ADS-B (KSNC)
Thu 02:48:35 AM 41.2724 -74.1851 316° Northwest 402 463 22,800 1,900 Climbing FlightAware ADS-B (KSNC)
Thu 02:49:05 AM 41.3134 -74.2375 316° Northwest 407 468 23,800 1,869 Climbing FlightAware ADS-B (KSNC)
Thu 02:49:36 AM 41.3552 -74.2910 316° Northwest 412 474 24,700 1,800 Climbing FlightAware ADS-B (KSNC)
Thu 02:50:15 AM 41.4050 -74.3622 308° West 409 471 25,900 1,714 Climbing FlightAware ADS-B (KSNC)
Thu 02:50:46 AM 41.4374 -74.4280 300° West 406 467 26,700 1,606 Climbing FlightAware ADS-B (KSNC)
Thu 02:51:26 AM 41.4740 -74.5123 300° West 409 471 27,800 1,886 Climbing FlightAware ADS-B (KSNC)
Thu 02:51:56 AM 41.4990 -74.5705 300° West 405 466 28,900 2,000 Climbing FlightAware ADS-B (KSNC)
Thu 02:52:26 AM 41.5310 -74.6448 300° West 402 463 29,800 2,000 Climbing FlightAware ADS-B (KSNC)
Thu 02:52:56 AM 41.5585 -74.7087 300° West 393 452 30,900 1,920 Climbing FlightAware ADS-B (KSNC)
Thu 02:53:41 AM 41.5822 -74.7630 312° West 397 457 32,200 954 Climbing FlightAware ADS-B (KSNC)
Thu 02:56:11 AM 41.8188 -75.0429 320° Northwest 405 466 34,000 387 Climbing FlightAware ADS-B (KWWD)
Thu 02:58:20 AM 41.8571 -75.0856 320° Northwest 410 472 34,000  Level FlightAware ADS-B (KWWD)
Thu 02:59:33 AM 42.1000 -75.3167 320° Northwest 410 472 34,000  Level Toronto Center
Thu 03:00:28 AM 42.2053 -75.4294 322° Northwest 421 484 34,000  Level Boston Center
Thu 03:01:28 AM 42.3083 -75.5103 330° Northwest 427 491 34,000  Level Boston Center
Thu 03:02:28 AM 42.3947 -75.5819 329° Northwest 427 491 34,000  Level Boston Center
Thu 03:07:39 AM 42.8906 -75.9826 329° Northwest 432 497 34,000  Level FlightAware ADS-B (EPGD / GDN)
Thu 03:08:16 AM 42.9781 -76.0543 329° Northwest 432 497 34,000  Level FlightAware ADS-B
Thu 03:08:53 AM 43.0728 -76.1322 329° Northwest 432 497 34,000  Level FlightAware ADS-B (EPGD / GDN)
Thu 03:09:23 AM 43.1153 -76.1672 329° Northwest 433 498 34,000  Level FlightAware ADS-B (EPGD / GDN)
Thu 03:10:52 AM 43.2504 -76.2847 329° Northwest 433 498 34,000  Level FlightAware ADS-B (EPGD / GDN)
Thu 03:11:22 AM 43.3143 -76.3427 326° Northwest 424 488 34,000  Level FlightAware ADS-B (EPGD / GDN)
Thu 03:11:52 AM 43.3681 -76.3911 326° Northwest 424 488 34,000  Level FlightAware ADS-B (EPGD / GDN)
Thu 03:12:03 AM 43.3944 -76.4146 327° Northwest 431 496 34,000  Level FlightAware ADS-B
Thu 03:12:42 AM 43.4585 -76.4722 327° Northwest 431 496 34,000  Level FlightAware ADS-B
Thu 03:12:57 AM 43.4815 -76.4929 327° Northwest 431 496 34,000  Level FlightAware ADS-B (CYYZ)
Thu 03:13:15 AM 43.5121 -76.5206 327° Northwest 430 495 34,000  Level FlightAware ADS-B
Thu 03:13:29 AM 43.5367 -76.5428 327° Northwest 431 496 34,000  Level FlightAware ADS-B (CYYZ)
Thu 03:13:45 AM 43.5602 -76.5641 327° Northwest 430 495 34,000  Level FlightAware ADS-B
Thu 03:13:56 AM 43.5798 -76.5818 327° Northwest 431 496 34,000  Level FlightAware ADS-B (CYYZ)
Thu 03:14:15 AM 43.6127 -76.6116 327° Northwest 430 495 34,000  Level FlightAware ADS-B
Thu 03:14:29 AM 43.6357 -76.6326 327° Northwest 431 496 34,000  Level FlightAware ADS-B (CYYZ)
Thu 03:14:45 AM 43.6616 -76.6561 327° Northwest 430 495 34,000  Level FlightAware ADS-B
Thu 03:14:56 AM 43.6810 -76.6738 327° Northwest 431 496 34,000  Level FlightAware ADS-B (CYYZ)
Thu 03:15:25 AM 43.7238 -76.7163 319° Northwest 423 487 34,000  Level FlightAware ADS-B
Thu 03:15:28 AM 43.7314 -76.7254 319° Northwest 423 487 34,000  Level FlightAware ADS-B (CYYZ)
Thu 03:15:35 AM 43.7238 -76.7163 320° Northwest 424 488 34,000  Level FlightAware ADS-B (EPGD / GDN)
Thu 03:16:05 AM 43.7429 -76.7405 316° Northwest 421 484 34,000  Level FlightAware ADS-B (EPGD / GDN)
Thu 03:16:18 AM 43.7968 -76.8248 311° West 419 482 34,000  Level FlightAware ADS-B (CYYZ)
Thu 03:16:35 AM 43.8004 -76.8307 316° Northwest 421 484 34,000  Level FlightAware ADS-B (EPGD / GDN)
Thu 03:16:49 AM 43.8351 -76.8870 311° West 419 482 34,000  Level FlightAware ADS-B (CYYZ)
Thu 03:17:15 AM 43.8672 -76.9392 310° West 420 483 34,000  Level FlightAware ADS-B
Thu 03:17:18 AM 43.8723 -76.9474 311° West 421 484 34,000  Level FlightAware ADS-B (CYYZ)
Thu 03:17:45 AM 43.9055 -77.0013 310° West 420 483 34,000  Level FlightAware ADS-B
Thu 03:17:48 AM 43.9093 -77.0075 311° West 422 486 34,000  Level FlightAware ADS-B (CYYZ)
Thu 03:18:19 AM 43.9468 -77.0683 311° West 422 486 34,000  Level FlightAware ADS-B (CYYZ)
Thu 03:18:25 AM 43.9542 -77.0804 311° West 421 484 34,000  Level FlightAware ADS-B
Thu 03:18:47 AM 43.9842 -77.1293 311° West 422 486 34,000  Level FlightAware ADS-B (CYYZ)
Thu 03:19:09 AM 44.0117 -77.1740 310° West 421 484 34,000  Level FlightAware ADS-B
Thu 03:19:20 AM 44.0252 -77.1961 311° West 423 487 34,000  Level FlightAware ADS-B (CYYZ)
Thu 03:19:49 AM 44.0621 -77.2565 311° West 422 486 34,000  Level FlightAware ADS-B (CYYZ)
Thu 03:19:52 AM 44.0607 -77.2543 310° West 421 484 34,000  Level FlightAware ADS-B
Thu 03:20:18 AM 44.0991 -77.3174 311° West 423 487 34,000  Level FlightAware ADS-B (CYYZ)
Thu 03:20:23 AM 44.1014 -77.3211 310° West 423 487 34,000  Level FlightAware ADS-B
Thu 03:20:48 AM 44.1355 -77.3774 311° West 425 489 34,000  Level FlightAware ADS-B (CYYZ)
Thu 03:21:06 AM 44.1599 -77.4176 310° West 425 489 34,000  Level FlightAware ADS-B
Thu 03:21:19 AM 44.1758 -77.4437 311° West 426 490 34,000  Level FlightAware ADS-B (CYYZ)
Thu 03:21:48 AM 44.2030 -77.4887 310° West 427 491 34,000  Level FlightAware ADS-B (EPGD / GDN)
Thu 03:22:18 AM 44.2500 -77.5666 310° West 429 494 34,000  Level FlightAware ADS-B (CYYZ)
Thu 03:22:21 AM 44.2500 -77.5666 310° West 428 493 34,000  Level FlightAware ADS-B
Thu 03:22:48 AM 44.2878 -77.6292 310° West 431 496 34,000  Level FlightAware ADS-B (CYYZ)
Thu 03:22:53 AM 44.2924 -77.6368 309° West 430 495 34,000  Level FlightAware ADS-B
Thu 03:23:20 AM 44.3298 -77.6965 314° West 436 502 34,000  Level FlightAware ADS-B (CYYZ)
Thu 03:23:35 AM 44.3358 -77.7053 315° West 437 503 34,000  Level FlightAware ADS-B
Thu 03:23:50 AM 44.3741 -77.7567 318° Northwest 440 506 34,000  Level FlightAware ADS-B (CYYZ)
Thu 03:24:18 AM 44.4160 -77.8103 318° Northwest 440 506 34,000  Level FlightAware ADS-B (CYYZ)
Thu 03:24:20 AM 44.4152 -77.8091 317° Northwest 438 504 34,000  Level FlightAware ADS-B
Thu 03:24:48 AM 44.4618 -77.8687 318° Northwest 440 506 34,000  Level FlightAware ADS-B (CYYZ)
Thu 03:24:52 AM 44.4641 -77.8716 317° Northwest 438 504 34,000  Level FlightAware ADS-B
Thu 03:25:18 AM 44.5055 -77.9244 318° Northwest 438 504 34,000  Level FlightAware ADS-B (CYYZ)
Thu 03:25:36 AM 44.5308 -77.9569 317° Northwest 436 502 34,000  Level FlightAware ADS-B
Thu 03:25:47 AM 44.5496 -77.9811 318° Northwest 437 503 34,000  Level FlightAware ADS-B (CYYZ)
Thu 03:26:18 AM 44.5945 -78.0388 318° Northwest 435 501 34,000  Level FlightAware ADS-B (CYYZ)
Thu 03:26:23 AM 44.5983 -78.0437 317° Northwest 434 499 34,000  Level FlightAware ADS-B
Thu 03:26:47 AM 44.6380 -78.0949 318° Northwest 435 501 34,000  Level FlightAware ADS-B (CYYZ)
Thu 03:26:53 AM 44.6409 -78.0987 317° Northwest 433 498 34,000  Level FlightAware ADS-B
Thu 03:27:19 AM 44.6848 -78.1554 318° Northwest 433 498 34,000  Level FlightAware ADS-B (CYYZ)
Thu 03:27:34 AM 44.7005 -78.1757 317° Northwest 431 496 34,000  Level FlightAware ADS-B
Thu 03:27:48 AM 44.7267 -78.2097 318° Northwest 432 497 34,000  Level FlightAware ADS-B (CYYZ)
Thu 03:28:04 AM 44.7005 -78.1757 317° Northwest 430 495 34,000  Level FlightAware ADS-B
Thu 03:28:18 AM 44.7709 -78.2671 318° Northwest 431 496 34,000  Level FlightAware ADS-B (CYYZ)
Thu 03:28:39 AM 44.7974 -78.3015 318° Northwest 431 496 34,000  Level FlightAware ADS-B (CYYZ)
Thu 03:28:54 AM 44.7689 -78.2645 317° Northwest 430 495 34,000  Level FlightAware ADS-B
Thu 03:29:19 AM 44.8608 -78.3840 318° Northwest 431 496 34,000  Level FlightAware ADS-B (CYYZ)
Thu 03:29:31 AM 44.8526 -78.3734 317° Northwest 424 488 34,000  Level FlightAware ADS-B (EPGD / GDN)
Thu 03:29:42 AM 44.8720 -78.3986 318° Northwest 431 496 34,000  Level FlightAware ADS-B (CYYZ)
Thu 03:30:15 AM 44.8968 -78.4309 316° Northwest 424 488 34,000  Level FlightAware ADS-B (EPGD / GDN)
Thu 03:30:19 AM 44.9455 -78.4948 318° Northwest 431 496 34,000  Level FlightAware ADS-B (CYYZ)
Thu 03:30:49 AM 44.9913 -78.5547 318° Northwest 431 496 34,000  Level FlightAware ADS-B (CYYZ)
Thu 03:31:02 AM 44.7689 -78.2645 317° Northwest 430 495 34,000  Level FlightAware ADS-B
Thu 03:31:18 AM 45.0337 -78.6105 317° Northwest 432 497 34,000  Level FlightAware ADS-B (CYYZ)
Thu 03:31:49 AM 45.0790 -78.6702 317° Northwest 432 497 34,000  Level FlightAware ADS-B (CYYZ)
Thu 03:32:19 AM 45.1225 -78.7275 317° Northwest 434 499 34,000  Level FlightAware ADS-B (CYYZ)
Thu 03:32:49 AM 45.1665 -78.7857 317° Northwest 434 499 34,000  Level FlightAware ADS-B (CYYZ)
Thu 03:33:17 AM 45.2074 -78.8399 317° Northwest 435 501 34,000  Level FlightAware ADS-B (CYYZ)
Thu 03:33:44 AM 45.2221 -78.8595 316° Northwest 424 488 34,000  Level FlightAware ADS-B (EPGD / GDN)
Thu 03:33:48 AM 45.2523 -78.8995 317° Northwest 435 501 34,000  Level FlightAware ADS-B (CYYZ)
Thu 03:34:14 AM 45.2612 -78.9113 316° Northwest 429 494 34,000  Level FlightAware ADS-B (EPGD / GDN)
Thu 03:34:20 AM 45.2986 -78.9612 317° Northwest 436 502 34,000  Level FlightAware ADS-B (CYYZ)
Thu 03:34:48 AM 45.3403 -79.0168 317° Northwest 436 502 34,000  Level FlightAware ADS-B (CYYZ)
Thu 03:34:59 AM 45.3301 -79.0032 316° Northwest 429 494 34,000  Level FlightAware ADS-B (EPGD / GDN)
Thu 03:35:18 AM 45.3843 -79.0757 317° Northwest 436 502 34,000  Level FlightAware ADS-B (CYYZ)
Thu 03:35:29 AM 45.3752 -79.0635 316° Northwest 429 494 34,000  Level FlightAware ADS-B (EPGD / GDN)
Thu 03:35:48 AM 45.4281 -79.1345 317° Northwest 436 502 34,000  Level FlightAware ADS-B (CYYZ)
Thu 03:36:18 AM 45.4722 -79.1937 317° Northwest 436 502 34,000  Level FlightAware ADS-B (CYYZ)
Thu 03:36:49 AM 45.5168 -79.2538 317° Northwest 436 502 34,000  Level FlightAware ADS-B (CYYZ)
Thu 03:37:19 AM 45.5603 -79.3125 317° Northwest 437 503 34,000  Level FlightAware ADS-B (CYYZ)
Thu 03:37:49 AM 45.6041 -79.3717 317° Northwest 436 502 34,000  Level FlightAware ADS-B (CYYZ)
Thu 03:38:03 AM 45.6135 -79.3845 317° Northwest 435 501 34,000  Level FlightAware ADS-B (CYYZ)
Thu 03:41:33 AM 45.9295 -79.8163 317° Northwest 439 505 34,000  Level FlightAware ADS-B (CYYZ)
Thu 03:41:50 AM 45.9533 -79.8490 317° Northwest 439 505 34,000  Level FlightAware ADS-B (CYYZ)
Thu 03:42:33 AM 46.0000 -79.9167 317° Northwest 440 506 34,000  Level Toronto Center
Thu 03:43:33 AM 46.1000 -80.0333 321° Northwest 440 506 34,000  Level Toronto Center
Thu 03:44:33 AM 46.1833 -80.1667 312° West 440 506 34,000  Level Toronto Center
Thu 03:45:33 AM 46.2667 -80.2833 316° Northwest 440 506 34,000  Level Toronto Center
Thu 03:46:33 AM 46.3500 -80.4000 316° Northwest 440 506 34,000  Level Toronto Center
Thu 03:47:33 AM 46.4500 -80.5333 317° Northwest 440 506 34,000  Level Toronto Center
Thu 03:48:33 AM 46.5333 -80.6500 316° Northwest 440 506 34,000  Level Toronto Center
Thu 03:49:33 AM 46.6167 -80.7667 316° Northwest 450 518 34,000  Level Toronto Center
Thu 03:50:33 AM 46.7000 -80.9167 309° West 450 518 34,000  Level Toronto Center
Thu 03:51:33 AM 46.7833 -81.0500 312° West 450 518 34,000  Level Toronto Center
Thu 03:52:33 AM 46.8667 -81.1667 316° Northwest 440 506 34,000  Level Toronto Center
Thu 03:53:33 AM 46.9500 -81.3000 313° West 440 506 34,000  Level Toronto Center
Thu 03:54:33 AM 47.0500 -81.4167 322° Northwest 440 506 34,000  Level Toronto Center
Thu 03:55:33 AM 47.1333 -81.5500 313° West 440 506 34,000  Level Toronto Center
Thu 03:56:33 AM 47.2167 -81.6667 316° Northwest 430 495 34,000  Level Toronto Center
Thu 03:57:33 AM 47.3000 -81.8167 309° West 440 506 34,000  Level Toronto Center
Thu 03:58:33 AM 47.3833 -81.9500 313° West 430 495 34,000  Level Toronto Center
Thu 03:59:33 AM 47.4667 -82.0667 317° Northwest 440 506 34,000  Level Toronto Center
Thu 04:00:33 AM 47.5500 -82.2000 313° West 440 506 34,000  Level Toronto Center
Thu 04:01:33 AM 47.6333 -82.3333 313° West 440 506 34,000  Level Toronto Center
Thu 04:02:33 AM 47.7167 -82.4500 317° Northwest 440 506 34,000  Level Toronto Center
Thu 04:03:33 AM 47.8000 -82.5833 313° West 440 506 34,000  Level Toronto Center
Thu 04:04:33 AM 47.8833 -82.7333 310° West 440 506 34,000  Level Toronto Center
Thu 04:05:33 AM 47.9667 -82.8667 313° West 440 506 34,000  Level Toronto Center
Thu 04:06:33 AM 48.0500 -83.0000 313° West 440 506 34,000  Level Toronto Center
Thu 04:07:33 AM 48.1333 -83.1333 313° West 440 506 34,000  Level Toronto Center
Thu 04:08:33 AM 48.2167 -83.2500 317° Northwest 430 495 34,000  Level Toronto Center
Thu 04:09:33 AM 48.2833 -83.3833 307° West 430 495 34,000  Level Toronto Center
Thu 04:10:33 AM 48.3833 -83.5167 318° Northwest 430 495 34,000  Level Toronto Center
Thu 04:11:33 AM 48.4500 -83.6500 307° West 430 495 34,000  Level Toronto Center
Thu 04:12:33 AM 48.5500 -83.7833 319° Northwest 430 495 34,000  Level Toronto Center
Thu 04:13:33 AM 48.6167 -83.9167 307° West 430 495 34,000  Level Toronto Center
Thu 04:14:33 AM 48.7000 -84.0500 313° West 420 483 34,000  Level Toronto Center
Thu 04:15:33 AM 48.7833 -84.1833 314° West 420 483 34,000  Level Toronto Center
Thu 04:16:33 AM 48.8500 -84.3167 307° West 430 495 34,000  Level Toronto Center
Thu 04:17:33 AM 48.9333 -84.4500 314° West 430 495 34,000  Level Toronto Center
Thu 04:18:33 AM 49.0167 -84.5833 314° West 430 495 34,000  Level Toronto Center
Thu 04:19:33 AM 49.0833 -84.7167 307° West 430 495 34,000  Level Toronto Center
Thu 04:20:33 AM 49.1667 -84.8500 314° West 430 495 34,000  Level Toronto Center
Thu 04:21:33 AM 49.2500 -84.9833 314° West 430 495 34,000  Level Toronto Center
Thu 04:22:33 AM 49.3167 -85.1167 308° West 430 495 34,000  Level Toronto Center
Thu 04:23:33 AM 49.4000 -85.2667 311° West 430 495 34,000  Level Toronto Center
Thu 04:24:33 AM 49.5000 -85.4000 319° Northwest 430 495 34,000  Level Toronto Center
Thu 04:25:33 AM 49.5667 -85.5333 308° West 430 495 34,000  Level Toronto Center
Thu 04:26:33 AM 49.6500 -85.6667 314° West 420 483 34,000  Level Toronto Center
Thu 04:27:33 AM 49.7167 -85.8167 305° West 430 495 34,000  Level Toronto Center
Thu 04:28:33 AM 49.8000 -85.9500 314° West 420 483 34,000  Level Toronto Center
Thu 04:29:33 AM 49.8667 -86.0833 308° West 430 495 34,000  Level Toronto Center
Thu 04:30:33 AM 49.9500 -86.2333 311° West 420 483 34,000  Level Toronto Center
Thu 04:31:33 AM 50.0333 -86.3667 314° West 420 483 34,000  Level Toronto Center
Thu 04:32:33 AM 50.1000 -86.5167 305° West 420 483 34,000  Level Toronto Center
Thu 04:33:31 AM 50.1333 -86.5667 316° Northwest 420 483 34,000  Level Edmonton Center
Thu 04:34:31 AM 50.2000 -86.7167 305° West 420 483 34,000  Level Edmonton Center
Thu 04:35:31 AM 50.2667 -86.8667 305° West 420 483 34,000  Level Edmonton Center
Thu 04:36:31 AM 50.3500 -87.0167 311° West 420 483 34,000  Level Edmonton Center
Thu 04:37:31 AM 50.4167 -87.1500 308° West 420 483 34,000  Level Edmonton Center
Thu 04:38:31 AM 50.4833 -87.2833 308° West 420 483 34,000  Level Edmonton Center
Thu 04:39:31 AM 50.5500 -87.4500 302° West 420 483 34,000  Level Edmonton Center
Thu 04:40:31 AM 50.6167 -87.5833 308° West 420 483 34,000  Level Edmonton Center
Thu 04:41:31 AM 50.6833 -87.7500 302° West 410 472 34,000  Level Edmonton Center
Thu 04:42:31 AM 50.7500 -87.8833 308° West 420 483 34,000  Level Edmonton Center
Thu 04:43:31 AM 50.8167 -88.0500 302° West 410 472 34,000  Level Edmonton Center
Thu 04:44:31 AM 50.9000 -88.1833 315° West 420 483 34,000  Level Edmonton Center
Thu 04:45:31 AM 50.9500 -88.3500 296° West 420 483 34,000  Level Edmonton Center
Thu 04:46:31 AM 51.0333 -88.4833 315° West 420 483 34,000  Level Edmonton Center
Thu 04:47:31 AM 51.0833 -88.6500 296° West 420 483 34,000  Level Edmonton Center
Thu 04:48:31 AM 51.1667 -88.7833 315° West 420 483 34,000  Level Edmonton Center
Thu 04:49:31 AM 51.2167 -88.9333 298° West 410 472 34,000  Level Edmonton Center
Thu 04:50:31 AM 51.3000 -89.1000 309° West 410 472 34,000  Level Edmonton Center
Thu 04:51:31 AM 51.3500 -89.2500 298° West 410 472 34,000  Level Edmonton Center
Thu 04:52:32 AM 51.4333 -89.4167 309° West 410 472 34,000  Level Edmonton Center
Thu 04:53:31 AM 51.4833 -89.5500 301° West 410 472 34,000  Level Edmonton Center
Thu 04:54:31 AM 51.5500 -89.7167 303° West 410 472 34,000  Level Edmonton Center
Thu 04:55:31 AM 51.6167 -89.8667 306° West 420 483 34,000  Level Edmonton Center
Thu 04:56:31 AM 51.6833 -90.0167 306° West 410 472 34,000  Level Edmonton Center
Thu 04:57:32 AM 51.7500 -90.1500 309° West 420 483 34,000  Level Edmonton Center
Thu 04:58:32 AM 51.8167 -90.2833 309° West 410 472 34,000  Level Edmonton Center
Thu 04:59:31 AM 51.9000 -90.4667 306° West 420 483 34,000  Level Edmonton Center
Thu 05:00:31 AM 51.9500 -90.6167 298° West 420 483 34,000  Level Edmonton Center
Thu 05:01:32 AM 52.0333 -90.7667 312° West 420 483 34,000  Level Edmonton Center
Thu 05:02:32 AM 52.1000 -90.9167 306° West 420 483 34,000  Level Edmonton Center
Thu 05:03:32 AM 52.1667 -91.1000 301° West 420 483 34,000  Level Edmonton Center
Thu 05:04:32 AM 52.2333 -91.2333 309° West 420 483 34,000  Level Edmonton Center
Thu 05:05:32 AM 52.3000 -91.3833 306° West 420 483 34,000  Level Edmonton Center
Thu 05:06:32 AM 52.3833 -91.5333 312° West 420 483 34,000  Level Edmonton Center
Thu 05:07:32 AM 52.4500 -91.7000 303° West 420 483 34,000  Level Edmonton Center
Thu 05:08:32 AM 52.5167 -91.8500 306° West 420 483 34,000  Level Edmonton Center
Thu 05:09:32 AM 52.5833 -92.0000 306° West 420 483 34,000  Level Edmonton Center
Thu 05:10:32 AM 52.6500 -92.1667 303° West 420 483 34,000  Level Edmonton Center
Thu 05:11:32 AM 52.7333 -92.3167 313° West 420 483 34,000  Level Edmonton Center
Thu 05:12:32 AM 52.8000 -92.4667 306° West 420 483 34,000  Level Edmonton Center
Thu 05:13:32 AM 52.8667 -92.6500 301° West 420 483 34,000  Level Edmonton Center
Thu 05:14:32 AM 52.9333 -92.8000 306° West 420 483 34,000  Level Edmonton Center
Thu 05:15:32 AM 53.0000 -92.9833 301° West 430 495 34,000  Level Edmonton Center
Thu 05:16:32 AM 53.0667 -93.1333 307° West 420 483 34,000  Level Edmonton Center
Thu 05:17:32 AM 53.1333 -93.3000 304° West 430 495 34,000  Level Edmonton Center
Thu 05:18:32 AM 53.2000 -93.4500 307° West 420 483 34,000  Level Edmonton Center
Thu 05:19:32 AM 53.2667 -93.6167 304° West 430 495 34,000  Level Edmonton Center
Thu 05:20:32 AM 53.3500 -93.7833 310° West 420 483 34,000  Level Edmonton Center
Thu 05:21:32 AM 53.4167 -93.9500 304° West 420 483 34,000  Level Edmonton Center
Thu 05:22:32 AM 53.4833 -94.1333 301° West 420 483 34,000  Level Edmonton Center
Thu 05:23:32 AM 53.5500 -94.2833 307° West 420 483 34,000  Level Edmonton Center
Thu 05:24:32 AM 53.6167 -94.4333 307° West 420 483 34,000  Level Edmonton Center
Thu 05:25:32 AM 53.6833 -94.6167 302° West 430 495 34,000  Level Edmonton Center
Thu 05:26:32 AM 53.7500 -94.7833 304° West 420 483 34,000  Level Edmonton Center
Thu 05:27:32 AM 53.8000 -94.9333 299° West 420 483 34,000  Level Edmonton Center
Thu 05:28:32 AM 53.8667 -95.1167 302° West 420 483 34,000  Level Edmonton Center
Thu 05:29:32 AM 53.9333 -95.2833 304° West 420 483 34,000  Level Edmonton Center
Thu 05:30:32 AM 54.0000 -95.4333 307° West 420 483 34,000  Level Edmonton Center
Thu 05:31:32 AM 54.0667 -95.6167 302° West 420 483 34,000  Level Edmonton Center
Thu 05:32:32 AM 54.1333 -95.7833 304° West 420 483 34,000  Level Edmonton Center
Thu 05:33:32 AM 54.2000 -95.9667 302° West 420 483 34,000  Level Edmonton Center
Thu 05:34:32 AM 54.2667 -96.1333 304° West 420 483 34,000  Level Edmonton Center
Thu 05:35:32 AM 54.3333 -96.3000 304° West 430 495 34,000  Level Edmonton Center
Thu 05:36:32 AM 54.4000 -96.4833 302° West 430 495 34,000  Level Edmonton Center
Thu 05:37:32 AM 54.4500 -96.6500 297° West 430 495 34,000  Level Edmonton Center
Thu 05:38:32 AM 54.5167 -96.8333 302° West 420 483 34,000  Level Edmonton Center
Thu 05:39:32 AM 54.5833 -97.0000 305° West 420 483 34,000  Level Edmonton Center
Thu 05:40:32 AM 54.6500 -97.1667 305° West 420 483 34,000  Level Edmonton Center
Thu 05:41:32 AM 54.7167 -97.3500 302° West 420 483 34,000  Level Edmonton Center
Thu 05:42:32 AM 54.7667 -97.5167 298° West 420 483 34,000  Level Edmonton Center
Thu 05:43:32 AM 54.8333 -97.7167 300° West 420 483 34,000  Level Edmonton Center
Thu 05:44:32 AM 54.9000 -97.8833 305° West 430 495 34,000  Level Edmonton Center
Thu 05:45:32 AM 54.9500 -98.0833 294° West 430 495 34,000  Level Edmonton Center
Thu 05:46:32 AM 55.0167 -98.2500 305° West 430 495 34,000  Level Edmonton Center
Thu 05:47:32 AM 55.0833 -98.4167 305° West 430 495 34,000  Level Edmonton Center
Thu 05:48:32 AM 55.1333 -98.6167 294° West 430 495 34,000  Level Edmonton Center
Thu 05:49:32 AM 55.2000 -98.7833 305° West 430 495 34,000  Level Edmonton Center
Thu 05:50:32 AM 55.2667 -98.9833 300° West 430 495 34,000  Level Edmonton Center
Thu 05:51:32 AM 55.3167 -99.1500 298° West 430 495 34,000  Level Edmonton Center
Thu 05:52:32 AM 55.3833 -99.3500 300° West 430 495 34,000  Level Edmonton Center
Thu 05:53:32 AM 55.4333 -99.5167 298° West 430 495 34,000  Level Edmonton Center
Thu 05:54:32 AM 55.5000 -99.7167 301° West 430 495 34,000 100 Level Edmonton Center
Thu 05:55:32 AM 55.5667 -99.9167 301° West 430 495 34,200 700 Climbing Edmonton Center
Thu 05:56:32 AM 55.6167 -100.1000 296° West 440 506 35,400 900 Climbing Edmonton Center
Thu 05:57:32 AM 55.7000 -100.3000 307° West 440 506 36,000 300 Climbing Edmonton Center
Thu 05:58:32 AM 55.7500 -100.4667 298° West 430 495 36,000  Level Edmonton Center
Thu 05:59:32 AM 55.8167 -100.6833 299° West 440 506 36,000  Level Edmonton Center
Thu 06:00:32 AM 55.8667 -100.8500 298° West 440 506 36,000  Level Edmonton Center
Thu 06:01:32 AM 55.9333 -101.0500 301° West 440 506 36,000  Level Edmonton Center
Thu 06:02:32 AM 55.9833 -101.2667 292° West 440 506 36,000  Level Edmonton Center
Thu 06:03:32 AM 56.0333 -101.4333 298° West 440 506 36,000  Level Edmonton Center
Thu 06:04:32 AM 56.1000 -101.6500 299° West 440 506 36,000  Level Edmonton Center
Thu 06:05:32 AM 56.1500 -101.8500 294° West 440 506 36,000  Level Edmonton Center
Thu 06:06:32 AM 56.2000 -102.0333 296° West 440 506 36,000  Level Edmonton Center
Thu 06:07:32 AM 56.2833 -102.2500 305° West 440 506 36,000  Level Edmonton Center
Thu 06:08:32 AM 56.3333 -102.4500 294° West 440 506 36,000  Level Edmonton Center
Thu 06:09:32 AM 56.3833 -102.6333 296° West 440 506 36,000  Level Edmonton Center
Thu 06:10:32 AM 56.4500 -102.8500 299° West 440 506 36,000  Level Edmonton Center
Thu 06:11:32 AM 56.5000 -103.0333 296° West 440 506 36,000  Level Edmonton Center
Thu 06:12:32 AM 56.5500 -103.2333 294° West 440 506 36,000  Level Edmonton Center
Thu 06:13:32 AM 56.6167 -103.4500 299° West 450 518 36,000  Level Edmonton Center
Thu 06:14:32 AM 56.6833 -103.6667 299° West 440 506 36,000  Level Edmonton Center
Thu 06:15:32 AM 56.7333 -103.8500 296° West 450 518 36,000  Level Edmonton Center
Thu 06:16:32 AM 56.7833 -104.0667 293° West 440 506 36,000  Level Edmonton Center
Thu 06:17:32 AM 56.8333 -104.2500 297° West 450 518 36,000  Level Edmonton Center
Thu 06:18:32 AM 56.9000 -104.5000 296° West 450 518 36,000  Level Edmonton Center
Thu 06:19:32 AM 56.9500 -104.6833 297° West 440 506 36,000  Level Edmonton Center
Thu 06:20:32 AM 57.0000 -104.9000 293° West 450 518 36,000  Level Edmonton Center
Thu 06:21:32 AM 57.0500 -105.0833 297° West 450 518 36,000  Level Edmonton Center
Thu 06:22:32 AM 57.1000 -105.3000 293° West 450 518 36,000  Level Edmonton Center
Thu 06:23:32 AM 57.1667 -105.5167 300° West 440 506 36,000  Level Edmonton Center
Thu 06:24:32 AM 57.2167 -105.7167 295° West 440 506 36,000  Level Edmonton Center
Thu 06:25:32 AM 57.2667 -105.9333 293° West 440 506 36,000  Level Edmonton Center
Thu 06:26:32 AM 57.3167 -106.1167 297° West 450 518 36,000  Level Edmonton Center
Thu 06:27:32 AM 57.3667 -106.3833 289° West 440 506 36,000  Level Edmonton Center
Thu 06:28:32 AM 57.4333 -106.5667 304° West 450 518 36,000  Level Edmonton Center
Thu 06:29:32 AM 57.4833 -106.7833 293° West 440 506 36,000  Level Edmonton Center
Thu 06:30:32 AM 57.5333 -107.0167 292° West 450 518 36,000  Level Edmonton Center
Thu 06:31:32 AM 57.5833 -107.2000 297° West 450 518 36,000  Level Edmonton Center
Thu 06:32:32 AM 57.6333 -107.4333 292° West 440 506 36,000  Level Edmonton Center
Thu 06:33:32 AM 57.6667 -107.6500 286° West 450 518 36,000  Level Edmonton Center
Thu 06:34:32 AM 57.7333 -107.8500 302° West 440 506 36,000  Level Edmonton Center
Thu 06:35:32 AM 57.7833 -108.0833 292° West 450 518 36,000  Level Edmonton Center
Thu 06:36:32 AM 57.8333 -108.3000 294° West 450 518 36,000  Level Edmonton Center
Thu 06:37:32 AM 57.8667 -108.5333 285° West 450 518 36,000  Level Edmonton Center
Thu 06:38:32 AM 57.9167 -108.7333 295° West 460 529 36,000  Level Edmonton Center
Thu 06:39:32 AM 57.9833 -108.9667 298° West 440 506 36,000  Level Edmonton Center
Thu 06:40:32 AM 58.0167 -109.1833 286° West 450 518 36,000  Level Edmonton Center
Thu 06:41:32 AM 58.0667 -109.4167 292° West 460 529 36,000  Level Edmonton Center
Thu 06:42:32 AM 58.1167 -109.6167 295° West 440 506 36,000  Level Edmonton Center
Thu 06:43:32 AM 58.1667 -109.8500 292° West 450 518 36,000  Level Edmonton Center
Thu 06:44:32 AM 58.2167 -110.0833 292° West 450 518 36,000  Level Edmonton Center
Thu 06:45:32 AM 58.2500 -110.3167 285° West 450 518 36,000  Level Edmonton Center
Thu 06:46:32 AM 58.3000 -110.5500 292° West 450 518 36,000  Level Edmonton Center
Thu 06:47:32 AM 58.3333 -110.7500 288° West 450 518 36,000  Level Edmonton Center
Thu 06:48:32 AM 58.3833 -110.9833 292° West 450 518 36,000  Level Edmonton Center
Thu 06:49:32 AM 58.4333 -111.2167 292° West 450 518 36,000  Level Edmonton Center
Thu 06:50:32 AM 58.4667 -111.4500 285° West 450 518 36,000  Level Edmonton Center
Thu 06:51:32 AM 58.5167 -111.6667 294° West 460 529 36,000  Level Edmonton Center
Thu 06:52:32 AM 58.5667 -111.9333 290° West 460 529 36,000  Level Edmonton Center
Thu 06:53:32 AM 58.6000 -112.1333 288° West 460 529 36,000  Level Edmonton Center
Thu 06:54:32 AM 58.6500 -112.3667 292° West 460 529 36,000  Level Edmonton Center
Thu 06:55:32 AM 58.7000 -112.6167 291° West 460 529 36,000  Level Edmonton Center
Thu 06:56:32 AM 58.7333 -112.8500 285° West 450 518 36,000  Level Edmonton Center
Thu 06:57:32 AM 58.7667 -113.1000 285° West 450 518 36,000  Level Edmonton Center
Thu 06:58:32 AM 58.8000 -113.3000 288° West 450 518 36,000  Level Edmonton Center
Thu 06:59:32 AM 58.8667 -113.5500 297° West 450 518 36,000  Level Edmonton Center
Thu 07:00:32 AM 58.9000 -113.7833 286° West 450 518 36,000  Level Edmonton Center
Thu 07:01:32 AM 58.9333 -114.0167 286° West 450 518 36,000  Level Edmonton Center
Thu 07:02:32 AM 58.9667 -114.2667 285° West 450 518 36,000  Level Edmonton Center
Thu 07:03:32 AM 59.0167 -114.5167 291° West 450 518 36,000  Level Edmonton Center
Thu 07:04:32 AM 59.0500 -114.7167 288° West 460 529 36,000  Level Edmonton Center
Thu 07:05:32 AM 59.0833 -115.0000 283° West 450 518 36,000  Level Edmonton Center
Thu 07:06:32 AM 59.1333 -115.2167 294° West 450 518 36,000  Level Edmonton Center
Thu 07:07:32 AM 59.1667 -115.4500 286° West 460 529 36,000  Level Edmonton Center
Thu 07:08:32 AM 59.2000 -115.7000 285° West 450 518 36,000  Level Edmonton Center
Thu 07:09:32 AM 59.2167 -115.9500 278° West 450 518 36,000  Level Edmonton Center
Thu 07:10:32 AM 59.2667 -116.1667 294° West 450 518 36,000  Level Edmonton Center
Thu 07:11:32 AM 59.3000 -116.4000 286° West 460 529 36,000  Level Edmonton Center
Thu 07:12:32 AM 59.3333 -116.6500 285° West 450 518 36,000  Level Edmonton Center
Thu 07:13:32 AM 59.3833 -116.8667 294° West 450 518 36,000  Level Edmonton Center
Thu 07:14:32 AM 59.4167 -117.1167 285° West 450 518 36,000  Level Edmonton Center
Thu 07:15:32 AM 59.4500 -117.3667 285° West 450 518 36,000  Level Edmonton Center
Thu 07:16:32 AM 59.5000 -117.6000 293° West 450 518 36,000  Level Edmonton Center
Thu 07:17:32 AM 59.5500 -117.8167 295° West 450 518 36,000  Level Edmonton Center
Thu 07:18:32 AM 59.5833 -118.0667 285° West 450 518 36,000  Level Edmonton Center
Thu 07:19:32 AM 59.6167 -118.3167 285° West 450 518 36,000  Level Edmonton Center
Thu 07:20:32 AM 59.6667 -118.5500 293° West 450 518 36,000  Level Edmonton Center
Thu 07:21:32 AM 59.7000 -118.8000 285° West 460 529 36,000  Level Edmonton Center
Thu 07:22:32 AM 59.7333 -119.0167 287° West 460 529 36,000  Level Edmonton Center
Thu 07:23:32 AM 59.7833 -119.2833 291° West 450 518 36,000  Level Edmonton Center
Thu 07:24:32 AM 59.8167 -119.5000 287° West 460 529 36,000  Level Edmonton Center
Thu 07:25:32 AM 59.8667 -119.7667 291° West 450 518 36,000  Level Edmonton Center
Thu 07:26:32 AM 59.8833 -119.9833 279° West 450 518 36,000  Level Edmonton Center
Thu 07:27:32 AM 59.9333 -120.2500 291° West 450 518 36,000  Level Edmonton Center
Thu 07:28:32 AM 59.9667 -120.5000 285° West 450 518 36,000  Level Edmonton Center
Thu 07:29:32 AM 60.0000 -120.7333 286° West 450 518 36,000  Level Edmonton Center
Thu 07:30:32 AM 60.0500 -121.0000 291° West 460 529 36,000  Level Edmonton Center
Thu 07:31:32 AM 60.0667 -121.2167 279° West 460 529 36,000  Level Edmonton Center
Thu 07:32:47 AM 60.1167 -121.5500 287° West 470 541 36,000  Level Edmonton Center
Thu 07:33:47 AM 60.1500 -121.7833 286° West 460 529 36,000  Level Edmonton Center
Thu 08:32:49 AM 61.0667 -137.0000 268° West 450 518 36,000  Level Anchorage Center
Thu 08:33:00 AM 61.0914 -136.0980 269° West  Level FlightAware Approximate
Thu 08:33:49 AM 61.0667 -137.2667 270° West 460 529 36,000  Level Anchorage Center
Thu 08:34:00 AM 61.0886 -136.3465 269° West  Level FlightAware Approximate
Thu 08:34:50 AM 61.0667 -137.5333 270° West 460 529 36,000  Level Anchorage Center
Thu 08:35:00 AM 61.0854 -136.5949 269° West  Level FlightAware Approximate
Thu 08:35:50 AM 61.0667 -137.8000 270° West 470 541 36,000  Level Anchorage Center
Thu 08:36:00 AM 61.0817 -136.8433 268° West  Level FlightAware Approximate
Thu 08:36:50 AM 61.0500 -138.0500 262° West 450 518 36,000  Level Anchorage Center
Thu 08:37:00 AM 61.0775 -137.0916 268° West  Level FlightAware Approximate
Thu 08:37:51 AM 61.0500 -138.3167 270° West 460 529 36,000  Level Anchorage Center
Thu 08:38:00 AM 61.0729 -137.3398 268° West  Level FlightAware Approximate
Thu 08:38:51 AM 61.0333 -138.5833 263° West 470 541 36,000  Level Anchorage Center
Thu 08:39:51 AM 61.0333 -138.8500 270° West 460 529 36,000  Level Anchorage Center
Thu 08:40:52 AM 61.0167 -139.1167 263° West 460 529 36,000  Level Anchorage Center
Thu 08:41:52 AM 61.0167 -139.3833 270° West 460 529 36,000  Level Anchorage Center
Thu 08:42:52 AM 61.0000 -139.6500 263° West 470 541 36,000  Level Anchorage Center
Thu 08:43:53 AM 61.0000 -139.9000 270° West 450 518 36,000  Level Anchorage Center
Thu 08:44:53 AM 60.9833 -140.1667 263° West 450 518 36,000  Level Anchorage Center
Thu 08:45:54 AM 60.9833 -140.4333 270° West 460 529 36,000  Level Anchorage Center
Thu 08:46:54 AM 60.9667 -140.6833 262° West 450 518 36,000  Level Anchorage Center
Thu 08:47:54 AM 60.9500 -140.9500 263° West 470 541 36,000  Level Anchorage Center
Thu 08:48:55 AM 60.9500 -141.2167 270° West 470 541 36,000  Level Anchorage Center
Thu 08:49:55 AM 60.9667 -141.4833 277° West 460 529 36,000  Level Anchorage Center
Thu 08:50:55 AM 60.9833 -141.7500 277° West 460 529 36,000  Level Anchorage Center
Thu 08:51:56 AM 60.9833 -142.0167 270° West 460 529 36,000  Level Anchorage Center
Thu 08:52:56 AM 60.9833 -142.2833 270° West 460 529 36,000  Level Anchorage Center
Thu 08:53:56 AM 61.0000 -142.5500 277° West 460 529 36,000  Level Anchorage Center
Thu 08:54:57 AM 61.0000 -142.8167 270° West 470 541 36,000  Level Anchorage Center
Thu 08:55:57 AM 61.0167 -143.0833 277° West 460 529 36,000  Level Anchorage Center
Thu 08:56:57 AM 61.0167 -143.3667 270° West 460 529 36,000  Level Anchorage Center
Thu 08:57:58 AM 61.0167 -143.6333 270° West 460 529 36,000  Level Anchorage Center
Thu 09:03:58 AM 61.0443 -145.3116 271° West 475 547 36,000  Level FlightAware ADS-B
Thu 09:04:29 AM 61.0448 -145.4481 270° West 475 547 36,000 -800 Level FlightAware ADS-B
Thu 09:05:13 AM 61.0453 -145.6281 270° West 458 527 35,000 -1,520 Descending FlightAware ADS-B
Thu 09:05:44 AM 61.0454 -145.7852 270° West 446 513 34,100 -1,672 Descending FlightAware ADS-B
Thu 09:06:14 AM 61.0453 -145.9053 270° West 431 496 33,300 -1,700 Descending FlightAware ADS-B
Thu 09:06:44 AM 61.0453 -146.0300 270° West 419 482 32,400 -1,865 Descending FlightAware ADS-B
Thu 09:07:28 AM 61.0449 -146.2004 270° West 396 456 31,000 -2,108 Descending FlightAware ADS-B
Thu 09:07:58 AM 61.0445 -146.3135 270° West 385 443 29,800 -2,400 Descending FlightAware ADS-B
Thu 09:08:28 AM 61.0441 -146.4229 270° West 378 435 28,600 -2,000 Descending FlightAware ADS-B
Thu 09:08:58 AM 61.0436 -146.5312 269° West 379 436 27,800 -1,475 Descending FlightAware ADS-B
Thu 09:09:29 AM 61.0431 -146.6301 269° West 374 430 27,100 -1,421 Descending FlightAware ADS-B
Thu 09:10:14 AM 61.0420 -146.7962 269° West 363 418 26,000 -1,520 Descending FlightAware ADS-B
Thu 09:10:44 AM 61.0412 -146.9019 269° West 356 410 25,200 -1,440 Descending FlightAware ADS-B
Thu 09:11:29 AM 61.0400 -147.0501 269° West 347 399 24,200 -1,360 Descending FlightAware ADS-B
Thu 09:11:59 AM 61.0390 -147.1499 269° West 342 394 23,500 -1,360 Descending FlightAware ADS-B
Thu 09:12:44 AM 61.0376 -147.2935 269° West 336 387 22,500 -1,360 Descending FlightAware ADS-B
Thu 09:13:14 AM 61.0366 -147.3885 269° West 333 383 21,800 -1,360 Descending FlightAware ADS-B
Thu 09:13:59 AM 61.0349 -147.5301 268° West 329 379 20,800 -1,348 Descending FlightAware ADS-B
Thu 09:14:43 AM 61.0331 -147.6683 268° West 323 372 19,800 -1,280 Descending FlightAware ADS-B
Thu 09:15:14 AM 61.0318 -147.7606 268° West 319 367 19,200 -1,120 Descending FlightAware ADS-B
Thu 09:15:58 AM 61.0298 -147.8932 268° West 314 361 18,400 -1,120 Descending FlightAware ADS-B
Thu 09:16:29 AM 61.0284 -147.9862 268° West 313 360 17,800 -1,280 Descending FlightAware ADS-B
Thu 09:17:13 AM 61.0263 -148.1158 268° West 308 354 16,800 -1,280 Descending FlightAware ADS-B
Thu 09:17:44 AM 61.0248 -148.2037 268° West 307 353 16,200 -1,263 Descending FlightAware ADS-B
Thu 09:18:29 AM 61.0224 -148.3318 268° West 303 349 15,200 -1,280 Descending FlightAware ADS-B
Thu 09:18:59 AM 61.0208 -148.4228 268° West 301 346 14,600 -1,216 Descending FlightAware ADS-B
Thu 09:19:43 AM 61.0182 -148.5504 268° West 301 346 13,700 -1,120 Descending FlightAware ADS-B
Thu 09:20:14 AM 61.0165 -148.6364 268° West 297 342 13,200 -395 Descending FlightAware ADS-B
Thu 09:20:59 AM 61.0139 -148.7608 267° West 297 342 13,200  Level FlightAware ADS-B
Thu 09:21:29 AM 61.0120 -148.8476 267° West 299 344 13,200  Level FlightAware ADS-B
Thu 09:22:00 AM 61.0100 -148.9357 267° West 299 344 13,200  Level FlightAware ADS-B
Thu 09:22:39 AM 61.0074 -149.0456 267° West 299 344 13,200  Level FlightAware ADS-B
Thu 09:23:09 AM 61.0052 -149.1337 267° West 299 344 13,200 -590 Level FlightAware ADS-B
Thu 09:23:40 AM 61.0037 -149.2170 269° West 296 341 12,600 -1,377 Descending FlightAware ADS-B
Thu 09:24:10 AM 61.0026 -149.3009 268° West 290 334 11,800 -1,200 Descending FlightAware ADS-B
Thu 09:24:40 AM 61.0012 -149.3842 268° West 276 318 11,400 -800 Descending FlightAware ADS-B
Thu 09:25:10 AM 60.9998 -149.4590 268° West 261 300 11,000 -1,082 Descending FlightAware ADS-B
Thu 09:25:41 AM 60.9984 -149.5356 268° West 258 297 10,300 -1,375 Descending FlightAware ADS-B
Thu 09:25:58 AM 60.9974 -149.5799 268° West 258 297 9,900 -1,455 Descending FlightAware ADS-B
Thu 09:26:14 AM 60.9967 -149.6170 268° West 259 298 9,500 -1,355 Descending FlightAware ADS-B
Thu 09:26:29 AM 60.9960 -149.6544 268° West 258 297 9,200 -1,385 Descending FlightAware ADS-B
Thu 09:26:53 AM 60.9949 -149.7131 267° West 259 298 8,600 -1,364 Descending FlightAware ADS-B
Thu 09:27:13 AM 60.9938 -149.7634 268° West 261 300 8,200 -667 Descending FlightAware ADS-B
Thu 09:27:29 AM 60.9931 -149.8002 268° West 261 300 8,200  Level FlightAware ADS-B
Thu 09:27:53 AM 60.9918 -149.8614 267° West 261 300 8,200 -273 Level FlightAware ADS-B
Thu 09:28:13 AM 60.9907 -149.9090 267° West 258 297 8,000 -1,000 Descending FlightAware ADS-B
Thu 09:28:29 AM 60.9898 -149.9483 268° West 256 295 7,600 -1,742 Descending FlightAware ADS-B
Thu 09:28:44 AM 60.9890 -149.9852 267° West 255 293 7,100 -1,765 Descending FlightAware ADS-B
Thu 09:29:03 AM 60.9882 -150.0301 268° West 254 292 6,600 -2,000 Descending FlightAware ADS-B
Thu 09:29:23 AM 60.9878 -150.0808 271° West 258 297 5,800 -2,400 Descending FlightAware ADS-B
Thu 09:29:28 AM 60.9884 -150.0928 281° West 259 298 5,600 -1,800 Descending FlightAware ADS-B
Thu 09:29:33 AM 60.9896 -150.1035 286° West 258 297 5,500 -750 Descending FlightAware ADS-B
Thu 09:29:52 AM 60.9978 -150.1481 293° West 245 282 5,300 -462 Descending FlightAware ADS-B
Thu 09:30:12 AM 61.0057 -150.1873 292° West 232 267 5,200 -167 Descending FlightAware ADS-B
Thu 09:30:28 AM 61.0124 -150.2208 293° West 216 249 5,200  Level FlightAware ADS-B
Thu 09:30:43 AM 61.0181 -150.2486 293° West 210 242 5,200  Level FlightAware ADS-B
Thu 09:30:58 AM 61.0237 -150.2764 293° West 210 242 5,200  Level FlightAware ADS-B
Thu 09:31:14 AM 61.0296 -150.3046 293° West 210 242 5,200  Level FlightAware ADS-B
Thu 09:31:33 AM 61.0359 -150.3356 293° West 209 241 5,200 -154 Level FlightAware ADS-B
Thu 09:31:53 AM 61.0457 -150.3764 309° West 210 242 5,100 -231 Descending FlightAware ADS-B
Thu 09:31:59 AM 61.0477 -150.3810 320° Northwest 209 241 5,100 -600 Level FlightAware ADS-B
Thu 09:32:03 AM 61.0525 -150.3880 331° Northwest 208 239 5,000 -1,286 Descending FlightAware ADS-B
Thu 09:32:13 AM 61.0615 -150.3960 341° North 206 237 4,800 -1,385 Descending FlightAware ADS-B
Thu 09:32:29 AM 61.0766 -150.4062 342° North 199 229 4,400 -1,350 Descending FlightAware ADS-B
Thu 09:32:53 AM 61.0950 -150.4191 341° North 189 217 3,900 -1,227 Descending FlightAware ADS-B
Thu 09:33:13 AM 61.1126 -150.4316 341° North 184 212 3,500 -1,167 Descending FlightAware ADS-B
Thu 09:33:29 AM 61.1253 -150.4401 347° North 182 209 3,200 -1,263 Descending FlightAware ADS-B
Thu 09:33:32 AM 61.1258 -150.4403 356° North 180 207 3,100 -1,714 Descending FlightAware ADS-B
Thu 09:33:43 AM 61.1362 -150.4375 24° Northeast 177 204 2,800 -1,200 Descending FlightAware ADS-B
Thu 09:33:52 AM 61.1425 -150.4264 52° Northeast 175 201 2,700 -800 Descending FlightAware ADS-B
Thu 09:33:58 AM 61.1441 -150.4213 60° Northeast 175 201 2,600 -286 Descending FlightAware ADS-B
Thu 09:34:13 AM 61.1505 -150.3959 63° Northeast 179 206 2,600 -194 Level FlightAware ADS-B
Thu 09:34:29 AM 61.1562 -150.3723 63° Northeast 179 206 2,500 -450 Descending FlightAware ADS-B
Thu 09:34:53 AM 61.1649 -150.3366 68° East 176 203 2,300 -400 Descending FlightAware ADS-B
Thu 09:34:59 AM 61.1664 -150.3256 80° East 178 205 2,300  Level FlightAware ADS-B
Thu 09:35:23 AM 61.1670 -150.2863 89° East 163 188 2,300 -136 Level FlightAware ADS-B
Thu 09:35:43 AM 61.1673 -150.2543 90° East 165 190 2,200 -154 Descending FlightAware ADS-B
Thu 09:36:02 AM 61.1674 -150.2249 90° East 157 181 2,200 -450 Level FlightAware ADS-B
Thu 09:36:23 AM 61.1675 -150.1969 90° East 153 176 1,900 -878 Descending FlightAware ADS-B
Thu 09:36:43 AM 61.1675 -150.1715 90° East 151 174 1,600 -900 Descending FlightAware ADS-B
Thu 09:37:03 AM 61.1676 -150.1363 90° East 154 177 1,300 -878 Descending FlightAware ADS-B
Thu 09:37:24 AM 61.1676 -150.1069 90° East 155 178 1,000 -878 Descending FlightAware ADS-B
Thu 09:37:44 AM 61.1677 -150.0765 90° East 153 176 700 -900 Descending FlightAware ADS-B
Thu 09:38:04 AM 61.1677 -150.0496 90° East 151 174 400 -615 Descending FlightAware ADS-B
Thu 09:38:23 AM 61.1678 -150.0211 90° East 121 139 300 -316 Descending FlightAware ADS-B

Login

Don't have an account? Register now (free) for customized features, flight alerts, and more!